TimeCDT,TemperatureF,Dew PointF,Humidity,Sea Level PressureIn,VisibilityMPH,Wind Direction,Wind SpeedMPH,Gust SpeedMPH,PrecipitationIn,Events,Conditions,WindDirDegrees,DateUTC
12:15 AM,71.6,57.2,60,30.03,10.0,NE,11.5,-,N/A,,Clear,40,2013-08-14 05:15:00
12:35 AM,71.6,57.2,60,30.04,10.0,NE,9.2,-,N/A,,Clear,40,2013-08-14 05:35:00
12:55 AM,69.8,55.4,60,30.04,10.0,NE,9.2,-,N/A,,Clear,40,2013-08-14 05:55:00
1:15 AM,69.8,55.4,60,30.04,10.0,NNE,10.4,17.3,N/A,,Clear,30,2013-08-14 06:15:00
1:35 AM,69.8,55.4,60,30.04,10.0,NNE,13.8,-,N/A,,Clear,30,2013-08-14 06:35:00
1:55 AM,69.8,55.4,60,30.04,10.0,NE,10.4,17.3,N/A,,Clear,40,2013-08-14 06:55:00
2:15 AM,68.0,53.6,60,30.03,10.0,NE,10.4,17.3,N/A,,Clear,40,2013-08-14 07:15:00
2:35 AM,68.0,53.6,60,30.03,10.0,NE,12.7,-,N/A,,Clear,40,2013-08-14 07:35:00
3:15 AM,66.2,53.6,64,30.04,10.0,NE,11.5,-,N/A,,Clear,40,2013-08-14 08:15:00
3:35 AM,66.2,53.6,64,30.05,10.0,NE,11.5,-,N/A,,Clear,40,2013-08-14 08:35:00
3:55 AM,66.2,53.6,64,30.05,10.0,NE,11.5,-,N/A,,Clear,40,2013-08-14 08:55:00
4:15 AM,66.2,53.6,64,30.06,10.0,NE,12.7,17.3,N/A,,Clear,40,2013-08-14 09:15:00
4:35 AM,64.4,53.6,68,30.06,10.0,NE,10.4,-,N/A,,Clear,40,2013-08-14 09:35:00
5:35 AM,64.4,51.8,64,30.08,10.0,NE,8.1,-,N/A,,Clear,50,2013-08-14 10:35:00
5:55 AM,64.4,50.0,59,30.08,10.0,NE,6.9,-,N/A,,Clear,50,2013-08-14 10:55:00
6:15 AM,62.6,50.0,63,30.10,10.0,ENE,4.6,-,N/A,,Clear,60,2013-08-14 11:15:00
6:35 AM,62.6,48.2,59,30.10,10.0,NE,8.1,-,N/A,,Clear,40,2013-08-14 11:35:00
6:55 AM,62.6,48.2,59,30.10,10.0,NE,8.1,-,N/A,,Clear,40,2013-08-14 11:55:00
7:15 AM,62.6,48.2,59,30.11,10.0,NE,10.4,-,N/A,,Clear,40,2013-08-14 12:15:00
7:35 AM,62.6,48.2,59,30.11,10.0,NE,10.4,-,N/A,,Clear,40,2013-08-14 12:35:00
7:55 AM,64.4,48.2,56,30.11,10.0,NE,9.2,-,N/A,,Clear,40,2013-08-14 12:55:00
8:15 AM,64.4,48.2,56,30.11,10.0,NNE,10.4,-,N/A,,Clear,30,2013-08-14 13:15:00
8:35 AM,64.4,48.2,56,30.11,10.0,NNE,10.4,17.3,N/A,,Clear,30,2013-08-14 13:35:00
8:55 AM,66.2,48.2,52,30.12,10.0,NNE,13.8,-,N/A,,Clear,30,2013-08-14 13:55:00
9:15 AM,66.2,48.2,52,30.12,10.0,NE,10.4,17.3,N/A,,Clear,50,2013-08-14 14:15:00
9:55 AM,66.2,48.2,52,30.13,10.0,NE,10.4,-,N/A,,Clear,50,2013-08-14 14:55:00
10:15 AM,68.0,48.2,49,30.13,10.0,NE,12.7,-,N/A,,Clear,40,2013-08-14 15:15:00
10:35 AM,69.8,48.2,46,30.13,10.0,NNE,11.5,16.1,N/A,,Clear,30,2013-08-14 15:35:00
11:15 AM,71.6,48.2,43,30.13,10.0,NE,16.1,19.6,N/A,,Clear,40,2013-08-14 16:15:00
11:35 AM,71.6,50.0,46,30.13,10.0,NNE,16.1,-,N/A,,Clear,30,2013-08-14 16:35:00
11:55 AM,71.6,48.2,43,30.13,10.0,ENE,11.5,19.6,N/A,,Clear,70,2013-08-14 16:55:00
12:15 PM,71.6,48.2,43,30.12,10.0,NE,12.7,-,N/A,,Clear,40,2013-08-14 17:15:00
12:36 PM,73.4,48.2,41,30.12,10.0,NE,11.5,21.9,N/A,,Clear,50,2013-08-14 17:36:00
12:55 PM,73.4,48.2,41,30.12,10.0,NNE,16.1,19.6,N/A,,Clear,20,2013-08-14 17:55:00
1:15 PM,73.4,48.2,41,30.12,10.0,NNE,11.5,-,N/A,,Clear,20,2013-08-14 18:15:00
1:35 PM,73.4,50.0,44,30.11,10.0,ENE,8.1,18.4,N/A,,Clear,60,2013-08-14 18:35:00
1:55 PM,75.2,50.0,41,30.11,10.0,North,13.8,23.0,N/A,,Clear,360,2013-08-14 18:55:00
2:55 PM,75.2,48.2,38,30.10,10.0,NNE,12.7,21.9,N/A,,Clear,20,2013-08-14 19:55:00
3:15 PM,75.2,48.2,38,30.09,10.0,NNE,15.0,-,N/A,,Clear,20,2013-08-14 20:15:00
3:35 PM,75.2,48.2,38,30.09,10.0,ENE,10.4,21.9,N/A,,Clear,60,2013-08-14 20:35:00
3:55 PM,75.2,48.2,38,30.08,10.0,NNE,16.1,20.7,N/A,,Clear,30,2013-08-14 20:55:00
4:15 PM,75.2,50.0,41,30.08,10.0,NE,16.1,19.6,N/A,,Clear,40,2013-08-14 21:15:00
4:35 PM,75.2,50.0,41,30.08,10.0,NNE,11.5,16.1,N/A,,Clear,30,2013-08-14 21:35:00
5:15 PM,75.2,50.0,41,30.08,10.0,NE,15.0,-,N/A,,Clear,40,2013-08-14 22:15:00
5:35 PM,75.2,48.2,38,30.08,10.0,NE,15.0,-,N/A,,Clear,40,2013-08-14 22:35:00
5:55 PM,75.2,48.2,38,30.08,10.0,NNE,12.7,-,N/A,,Clear,30,2013-08-14 22:55:00
6:15 PM,73.4,48.2,41,30.07,10.0,NNE,17.3,-,N/A,,Clear,30,2013-08-14 23:15:00
6:35 PM,73.4,48.2,41,30.07,10.0,NNE,13.8,18.4,N/A,,Clear,30,2013-08-14 23:35:00
6:55 PM,73.4,48.2,41,30.07,10.0,NNE,13.8,19.6,N/A,,Clear,30,2013-08-14 23:55:00
7:15 PM,71.6,48.2,43,30.08,10.0,NE,9.2,-,N/A,,Clear,40,2013-08-15 00:15:00
7:35 PM,69.8,48.2,46,30.08,10.0,NE,9.2,16.1,N/A,,Clear,40,2013-08-15 00:35:00
7:47 PM,107.6,57.2,19,29.76,10.0,SW,10.4,-,N/A,,Mostly Cloudy,230,2013-08-15 00:47:00
7:55 PM,69.8,46.4,43,30.08,10.0,NNE,8.1,-,N/A,,Clear,30,2013-08-15 00:55:00
8:16 PM,68.0,46.4,46,30.09,10.0,NNE,6.9,-,N/A,,Clear,30,2013-08-15 01:16:00
8:35 PM,66.2,46.4,49,30.10,10.0,NNE,4.6,-,N/A,,Clear,20,2013-08-15 01:35:00
8:55 PM,66.2,46.4,49,30.10,10.0,NNE,6.9,-,N/A,,Clear,30,2013-08-15 01:55:00
9:15 PM,64.4,46.4,52,30.11,10.0,NNE,9.2,-,N/A,,Clear,30,2013-08-15 02:15:00
9:35 PM,64.4,46.4,52,30.11,10.0,NNE,9.2,-,N/A,,Clear,30,2013-08-15 02:35:00
9:55 PM,64.4,46.4,52,30.11,10.0,NE,9.2,-,N/A,,Clear,40,2013-08-15 02:55:00
10:15 PM,64.4,46.4,52,30.12,10.0,NE,9.2,-,N/A,,Clear,40,2013-08-15 03:15:00
10:35 PM,64.4,46.4,52,30.12,10.0,NNE,8.1,-,N/A,,Clear,30,2013-08-15 03:35:00
10:36 PM,64.4,46.4,52,30.12,10.0,NNE,8.1,-,N/A,,Clear,30,2013-08-15 03:36:00
10:55 PM,62.6,46.4,55,30.12,10.0,NNE,9.2,-,N/A,,Clear,30,2013-08-15 03:55:00
11:15 PM,62.6,46.4,55,30.12,10.0,NNE,8.1,-,N/A,,Clear,30,2013-08-15 04:15:00
11:35 PM,62.6,46.4,55,30.12,10.0,NNE,8.1,-,N/A,,Clear,30,2013-08-15 04:35:00
11:55 PM,62.6,46.4,55,30.12,10.0,NE,4.6,-,N/A,,Clear,40,2013-08-15 04:55:00